Time,TemperatureF,DewpointF,PressureIn,WindDirection,WindDirectionDegrees,WindSpeedMPH,WindSpeedGustMPH,Humidity,HourlyPrecipIn,Conditions,Clouds,dailyrainin,SoftwareType,DateUTC
2013-03-28 00:04:00,57.1,43.0,30.14,SE,131,6.0,12.0,60,0.00,,,0.00,weatherlink.com 1.10,2013-03-28 06:04:00,
2013-03-28 00:19:00,56.9,43.0,30.14,ESE,119,6.0,9.0,61,0.00,,,0.00,weatherlink.com 1.10,2013-03-28 06:19:00,
2013-03-28 00:34:00,56.6,44.0,30.15,SE,135,3.0,8.0,64,0.00,,,0.00,weatherlink.com 1.10,2013-03-28 06:34:00,
2013-03-28 00:49:00,56.5,45.0,30.15,SSE,148,5.0,10.0,65,0.00,,,0.00,weatherlink.com 1.10,2013-03-28 06:49:00,
2013-03-28 01:04:00,56.0,45.0,30.15,ESE,110,6.0,8.0,66,0.00,,,0.00,weatherlink.com 1.10,2013-03-28 07:04:00,
2013-03-28 01:19:00,55.5,45.0,30.15,ESE,108,4.0,10.0,67,0.00,,,0.00,weatherlink.com 1.10,2013-03-28 07:19:00,
2013-03-28 01:34:00,54.7,44.0,30.15,ESE,113,10.0,11.0,68,0.00,,,0.00,weatherlink.com 1.10,2013-03-28 07:34:00,
2013-03-28 01:49:00,54.1,45.0,30.15,ESE,122,5.0,9.0,70,0.00,,,0.00,weatherlink.com 1.10,2013-03-28 07:49:00,
2013-03-28 02:04:00,53.7,44.0,30.15,SE,124,7.0,9.0,71,0.00,,,0.00,weatherlink.com 1.10,2013-03-28 08:04:00,
2013-03-28 02:19:00,53.5,45.0,30.15,ESE,121,5.0,10.0,72,0.00,,,0.00,weatherlink.com 1.10,2013-03-28 08:19:00,
2013-03-28 02:34:00,53.2,45.0,30.15,ESE,115,5.0,9.0,74,0.00,,,0.00,weatherlink.com 1.10,2013-03-28 08:34:00,
2013-03-28 02:49:00,53.0,45.0,30.15,ESE,117,5.0,12.0,74,0.00,,,0.00,weatherlink.com 1.10,2013-03-28 08:49:00,
2013-03-28 03:05:00,52.9,45.0,30.14,East,101,8.0,9.0,75,0.00,,,0.00,weatherlink.com 1.10,2013-03-28 09:05:00,
2013-03-28 03:20:00,52.8,45.0,30.14,SE,133,3.0,9.0,76,0.00,,,0.00,weatherlink.com 1.10,2013-03-28 09:20:00,
2013-03-28 03:35:00,52.7,46.0,30.14,ESE,119,4.0,12.0,77,0.00,,,0.00,weatherlink.com 1.10,2013-03-28 09:35:00,
2013-03-28 03:50:00,52.5,46.0,30.14,ESE,122,6.0,8.0,78,0.00,,,0.00,weatherlink.com 1.10,2013-03-28 09:50:00,
2013-03-28 04:05:00,52.4,46.0,30.14,SE,143,4.0,9.0,78,0.00,,,0.00,weatherlink.com 1.10,2013-03-28 10:05:00,
2013-03-28 04:20:00,52.2,46.0,30.14,ESE,104,10.0,12.0,79,0.00,,,0.00,weatherlink.com 1.10,2013-03-28 10:20:00,
2013-03-28 04:35:00,52.0,46.0,30.14,ESE,105,4.0,7.0,79,0.00,,,0.00,weatherlink.com 1.10,2013-03-28 10:35:00,
2013-03-28 04:50:00,51.7,46.0,30.14,East,89,5.0,7.0,80,0.00,,,0.00,weatherlink.com 1.10,2013-03-28 10:50:00,
2013-03-28 05:05:00,51.3,46.0,30.15,ESE,107,3.0,7.0,81,0.00,,,0.00,weatherlink.com 1.10,2013-03-28 11:05:00,
2013-03-28 05:20:00,51.4,46.0,30.15,ESE,111,4.0,8.0,81,0.00,,,0.00,weatherlink.com 1.10,2013-03-28 11:20:00,
2013-03-28 05:35:00,51.4,46.0,30.15,ESE,118,5.0,8.0,81,0.00,,,0.00,weatherlink.com 1.10,2013-03-28 11:35:00,
2013-03-28 05:50:00,51.3,46.0,30.16,ESE,108,4.0,9.0,81,0.00,,,0.00,weatherlink.com 1.10,2013-03-28 11:50:00,
2013-03-28 06:05:00,51.0,46.0,30.16,ESE,112,5.0,8.0,82,0.00,,,0.00,weatherlink.com 1.10,2013-03-28 12:05:00,
2013-03-28 06:20:00,50.8,46.0,30.17,East,99,4.0,7.0,82,0.00,,,0.00,weatherlink.com 1.10,2013-03-28 12:20:00,
2013-03-28 06:35:00,50.9,46.0,30.17,East,95,7.0,10.0,83,0.00,,,0.00,weatherlink.com 1.10,2013-03-28 12:35:00,
2013-03-28 06:50:00,51.3,46.0,30.18,SE,129,4.0,7.0,83,0.00,,,0.00,weatherlink.com 1.10,2013-03-28 12:50:00,
2013-03-28 07:05:00,52.2,47.0,30.18,SE,124,6.0,8.0,82,0.00,,,0.00,weatherlink.com 1.10,2013-03-28 13:05:00,
2013-03-28 07:20:00,53.4,47.0,30.19,ESE,107,9.0,10.0,80,0.00,,,0.00,weatherlink.com 1.10,2013-03-28 13:20:00,
2013-03-28 07:35:00,54.1,48.0,30.19,ESE,115,10.0,11.0,80,0.00,,,0.00,weatherlink.com 1.10,2013-03-28 13:35:00,
2013-03-28 07:50:00,55.1,48.0,30.19,ESE,117,7.0,11.0,78,0.00,,,0.00,weatherlink.com 1.10,2013-03-28 13:50:00,
2013-03-28 08:05:00,56.0,49.0,30.19,SSE,156,7.0,13.0,78,0.00,,,0.00,weatherlink.com 1.10,2013-03-28 14:05:00,
2013-03-28 08:20:00,57.8,50.0,30.19,East,92,11.0,13.0,76,0.00,,,0.00,weatherlink.com 1.10,2013-03-28 14:20:00,
2013-03-28 08:35:00,59.0,51.0,30.20,ESE,119,5.0,15.0,75,0.00,,,0.00,weatherlink.com 1.10,2013-03-28 14:35:00,
2013-03-28 08:50:00,60.4,52.0,30.20,ESE,111,17.0,17.0,73,0.00,,,0.00,weatherlink.com 1.10,2013-03-28 14:50:00,
2013-03-28 09:05:00,61.8,53.0,30.20,SE,138,8.0,12.0,72,0.00,,,0.00,weatherlink.com 1.10,2013-03-28 15:05:00,
2013-03-28 09:20:00,62.5,53.0,30.20,ESE,105,9.0,14.0,71,0.00,,,0.00,weatherlink.com 1.10,2013-03-28 15:20:00,
2013-03-28 09:35:00,63.5,54.0,30.20,SE,143,6.0,14.0,70,0.00,,,0.00,weatherlink.com 1.10,2013-03-28 15:35:00,
2013-03-28 09:51:00,64.8,54.0,30.20,ESE,114,8.0,16.0,68,0.00,,,0.00,weatherlink.com 1.10,2013-03-28 15:51:00,
2013-03-28 10:06:00,66.2,56.0,30.20,SSE,149,6.0,9.0,69,0.00,,,0.00,weatherlink.com 1.10,2013-03-28 16:06:00,
2013-03-28 10:21:00,66.2,55.0,30.20,SSE,148,6.0,10.0,67,0.00,,,0.00,weatherlink.com 1.10,2013-03-28 16:21:00,
2013-03-28 10:36:00,66.8,55.0,30.19,SE,142,4.0,11.0,67,0.00,,,0.00,weatherlink.com 1.10,2013-03-28 16:36:00,
2013-03-28 10:51:00,67.0,56.0,30.19,SSE,162,5.0,15.0,67,0.00,,,0.00,weatherlink.com 1.10,2013-03-28 16:51:00,
2013-03-28 11:06:00,67.2,56.0,30.18,SE,127,7.0,14.0,67,0.00,,,0.00,weatherlink.com 1.10,2013-03-28 17:06:00,
2013-03-28 11:51:00,68.6,56.0,30.16,SE,124,8.0,11.0,65,0.00,,,0.00,weatherlink.com 1.10,2013-03-28 17:51:00,
2013-03-28 12:06:00,68.7,57.0,30.16,SE,134,6.0,11.0,66,0.00,,,0.00,weatherlink.com 1.10,2013-03-28 18:06:00,
2013-03-28 12:21:00,68.7,56.0,30.15,ESE,119,8.0,10.0,65,0.00,,,0.00,weatherlink.com 1.10,2013-03-28 18:21:00,
2013-03-28 12:36:00,68.7,56.0,30.15,SSW,207,2.0,9.0,65,0.00,,,0.00,weatherlink.com 1.10,2013-03-28 18:36:00,
2013-03-28 12:51:00,68.4,56.0,30.14,SSE,148,6.0,17.0,64,0.00,,,0.00,weatherlink.com 1.10,2013-03-28 18:51:00,
2013-03-28 13:06:00,68.8,57.0,30.13,SE,141,7.0,10.0,66,0.00,,,0.00,weatherlink.com 1.10,2013-03-28 19:06:00,
2013-03-28 13:21:00,69.0,56.0,30.13,SE,127,5.0,11.0,63,0.00,,,0.00,weatherlink.com 1.10,2013-03-28 19:21:00,
2013-03-28 13:36:00,69.5,56.0,30.12,SE,127,11.0,11.0,63,0.00,,,0.00,weatherlink.com 1.10,2013-03-28 19:36:00,
2013-03-28 14:06:00,68.9,57.0,30.11,ESE,122,9.0,14.0,65,0.00,,,0.00,weatherlink.com 1.10,2013-03-28 20:06:00,
2013-03-28 14:21:00,68.1,56.0,30.10,SSE,153,5.0,9.0,65,0.00,,,0.00,weatherlink.com 1.10,2013-03-28 20:21:00,
2013-03-28 14:36:00,69.1,56.0,30.09,SE,138,6.0,13.0,63,0.00,,,0.00,weatherlink.com 1.10,2013-03-28 20:36:00,
2013-03-28 14:51:00,69.4,57.0,30.09,SSE,153,6.0,9.0,65,0.00,,,0.00,weatherlink.com 1.10,2013-03-28 20:51:00,
2013-03-28 15:06:00,69.6,56.0,30.08,ESE,110,7.0,10.0,63,0.00,,,0.00,weatherlink.com 1.10,2013-03-28 21:06:00,
2013-03-28 15:21:00,69.3,57.0,30.08,SE,127,10.0,12.0,64,0.00,,,0.00,weatherlink.com 1.10,2013-03-28 21:21:00,
2013-03-28 15:36:00,69.7,56.0,30.08,ESE,108,13.0,14.0,62,0.00,,,0.00,weatherlink.com 1.10,2013-03-28 21:36:00,
2013-03-28 15:51:00,69.4,57.0,30.07,SSW,210,6.0,8.0,64,0.00,,,0.00,weatherlink.com 1.10,2013-03-28 21:51:00,
2013-03-28 16:06:00,69.4,56.0,30.07,SE,126,8.0,13.0,62,0.00,,,0.00,weatherlink.com 1.10,2013-03-28 22:06:00,
2013-03-28 16:21:00,69.3,56.0,30.07,ESE,121,4.0,13.0,63,0.00,,,0.00,weatherlink.com 1.10,2013-03-28 22:21:00,
2013-03-28 16:36:00,69.2,56.0,30.07,ESE,107,3.0,9.0,63,0.00,,,0.00,weatherlink.com 1.10,2013-03-28 22:36:00,
2013-03-28 16:51:00,69.4,56.0,30.07,ESE,116,5.0,8.0,63,0.00,,,0.00,weatherlink.com 1.10,2013-03-28 22:51:00,
2013-03-28 17:08:00,69.3,56.0,30.06,SE,126,7.0,11.0,63,0.00,,,0.00,weatherlink.com 1.10,2013-03-28 23:08:00,
2013-03-28 17:22:00,69.4,56.0,30.06,ESE,118,7.0,14.0,63,0.00,,,0.00,weatherlink.com 1.10,2013-03-28 23:22:00,
2013-03-28 17:37:00,69.2,56.0,30.06,SE,124,6.0,12.0,63,0.00,,,0.00,weatherlink.com 1.10,2013-03-28 23:37:00,
2013-03-28 17:52:00,69.1,56.0,30.06,SE,125,6.0,10.0,64,0.00,,,0.00,weatherlink.com 1.10,2013-03-28 23:52:00,
2013-03-28 18:07:00,69.0,56.0,30.07,SE,134,7.0,12.0,64,0.00,,,0.00,weatherlink.com 1.10,2013-03-29 00:07:00,
2013-03-28 18:22:00,68.7,56.0,30.07,SE,138,3.0,10.0,65,0.00,,,0.00,weatherlink.com 1.10,2013-03-29 00:22:00,
2013-03-28 18:37:00,68.2,56.0,30.06,ESE,116,6.0,9.0,65,0.00,,,0.00,weatherlink.com 1.10,2013-03-29 00:37:00,
2013-03-28 18:52:00,67.7,56.0,30.07,ESE,121,4.0,11.0,66,0.00,,,0.00,weatherlink.com 1.10,2013-03-29 00:52:00,
2013-03-28 19:07:00,67.3,56.0,30.07,SE,132,3.0,8.0,67,0.00,,,0.00,weatherlink.com 1.10,2013-03-29 01:07:00,
2013-03-28 19:22:00,67.2,56.0,30.07,ESE,121,7.0,10.0,68,0.00,,,0.00,weatherlink.com 1.10,2013-03-29 01:22:00,
2013-03-28 19:37:00,66.9,56.0,30.07,ESE,102,5.0,8.0,69,0.00,,,0.00,weatherlink.com 1.10,2013-03-29 01:37:00,
2013-03-28 19:52:00,66.7,56.0,30.07,East,91,3.0,-999.0,69,-99.99,,,0.00,weatherlink.com 1.10,2013-03-29 01:52:00,
2013-03-28 20:07:00,66.5,56.0,30.08,ESE,110,6.0,8.0,70,0.00,,,0.00,weatherlink.com 1.10,2013-03-29 02:07:00,
2013-03-28 20:22:00,66.5,56.0,30.08,ESE,103,4.0,10.0,70,0.00,,,0.00,weatherlink.com 1.10,2013-03-29 02:22:00,
2013-03-28 20:37:00,66.5,56.0,30.08,ESE,117,7.0,10.0,70,0.00,,,0.00,weatherlink.com 1.10,2013-03-29 02:37:00,
2013-03-28 20:52:00,66.4,56.0,30.09,ESE,113,7.0,12.0,70,0.00,,,0.00,weatherlink.com 1.10,2013-03-29 02:52:00,
2013-03-28 21:07:00,66.2,57.0,30.09,ESE,106,6.0,10.0,71,0.00,,,0.00,weatherlink.com 1.10,2013-03-29 03:07:00,
2013-03-28 21:22:00,66.0,56.0,30.10,SE,136,7.0,11.0,71,0.00,,,0.00,weatherlink.com 1.10,2013-03-29 03:22:00,
2013-03-28 21:37:00,65.7,56.0,30.10,ESE,121,3.0,9.0,72,0.00,,,0.00,weatherlink.com 1.10,2013-03-29 03:37:00,
2013-03-28 21:52:00,65.6,56.0,30.10,East,98,5.0,11.0,72,0.00,,,0.00,weatherlink.com 1.10,2013-03-29 03:52:00,
2013-03-28 22:07:00,65.4,57.0,30.10,ESE,109,7.0,11.0,73,0.00,,,0.00,weatherlink.com 1.10,2013-03-29 04:07:00,
2013-03-28 22:22:00,65.3,56.0,30.10,ESE,107,6.0,9.0,73,0.00,,,0.00,weatherlink.com 1.10,2013-03-29 04:22:00,
2013-03-28 22:37:00,65.1,56.0,30.10,East,91,5.0,10.0,73,0.00,,,0.00,weatherlink.com 1.10,2013-03-29 04:37:00,
2013-03-28 22:52:00,65.0,57.0,30.10,SE,136,5.0,9.0,74,0.00,,,0.00,weatherlink.com 1.10,2013-03-29 04:52:00,
2013-03-28 23:07:00,64.9,56.0,30.11,SE,131,5.0,9.0,74,0.00,,,0.00,weatherlink.com 1.10,2013-03-29 05:07:00,
2013-03-28 23:22:00,64.8,57.0,30.10,SE,132,4.0,9.0,75,0.00,,,0.00,weatherlink.com 1.10,2013-03-29 05:22:00,
2013-03-28 23:37:00,64.8,57.0,30.10,East,95,4.0,11.0,75,0.00,,,0.00,weatherlink.com 1.10,2013-03-29 05:37:00,
2013-03-28 23:52:00,64.7,57.0,30.10,SE,134,4.0,12.0,76,0.00,,,0.00,weatherlink.com 1.10,2013-03-29 05:52:00,